Tracking 28813 objects as of 19-Apr-2024
HD Live streaming from Space Station
objects crossing your sky now

CZ-6A DEB

Track CZ-6A DEB now!
10-day predictions


NORAD ID: 55870
Int'l Code: 2022-151ZS
Perigee: 678.6 km
Apogee: 795.3 km
Inclination: 98.7 °
Period: 99.4 minutes
Semi major axis: 7107 km
RCS: Unknown
Launch date: November 11, 2022
Source: People's Republic of China (PRC)
Launch site: Taiyaun Space Center, China (TSC)

Note: This is SATELLITE DEBRIS
Your satellite tracking list
Your tracking list is empty




NASA's NSSDC Master Catalog

Two Line Element Set (TLE):
1 55870U 22151ZS  24106.79836824  .00025565  00000-0  64863-2 0  9998
2 55870  98.6564 127.3721 0082098 194.8916 164.9858 14.48727513 62622
Source of the keplerian elements: AFSPC